owner,sensor,date,latitude,longitude,vertical_datum,wind_speed,wind_to_direction,wind_speed_of_gust,qcFlag 
NDBC,ioos:station:wmo:42055:1,2019-11-01T00:30:00Z,22.2030,-94.0000,5.0,14.0,-9999.0,18.0,'11111222,11111222,11111222' 
NDBC,ioos:station:wmo:42055:1,2019-11-01T01:50:00Z,22.2030,-94.0000,5.0,13.0,-9999.0,18.0,'11111222,11111222,11111222' 
NDBC,ioos:station:wmo:42055:1,2019-11-01T02:40:00Z,22.2030,-94.0000,5.0,13.0,-9999.0,17.0,'11111222,11111222,11111222' 
NDBC,ioos:station:wmo:42055:1,2019-11-01T03:50:00Z,22.2030,-94.0000,5.0,13.0,-9999.0,16.0,'11111222,11111222,11111222' 
NDBC,ioos:station:wmo:42055:1,2019-11-01T04:40:00Z,22.2030,-94.0000,5.0,13.0,-9999.0,17.0,'11111222,11111222,11111222' 
NDBC,ioos:station:wmo:42055:1,2019-11-01T05:40:00Z,22.2030,-94.0000,5.0,12.0,-9999.0,16.0,'11111222,11111222,11111222' 
NDBC,ioos:station:wmo:42055:1,2019-11-01T06:40:00Z,22.2030,-94.0000,5.0,12.0,-9999.0,15.0,'11111222,11111222,11111222' 
NDBC,ioos:station:wmo:42055:1,2019-11-01T07:40:00Z,22.2030,-94.0000,5.0,12.0,-9999.0,16.0,'11111222,11111222,11111222' 
NDBC,ioos:station:wmo:42055:1,2019-11-01T08:50:00Z,22.2030,-94.0000,5.0,12.0,-9999.0,14.0,'11111222,11111222,11111222' 
NDBC,ioos:station:wmo:42055:1,2019-11-01T09:40:00Z,22.2030,-94.0000,5.0,12.0,-9999.0,16.0,'11111222,11111222,11111222' 
NDBC,ioos:station:wmo:42055:1,2019-11-01T10:40:00Z,22.2030,-94.0000,5.0,11.0,-9999.0,15.0,'11111222,11111222,11111222' 
NDBC,ioos:station:wmo:42055:1,2019-11-01T11:40:00Z,22.2030,-94.0000,5.0,11.0,-9999.0,15.0,'11111222,11111222,11111222' 
NDBC,ioos:station:wmo:42055:1,2019-11-01T12:40:00Z,22.2030,-94.0000,5.0,11.0,-9999.0,14.0,'11111222,11111222,11111222' 
NDBC,ioos:station:wmo:42055:1,2019-11-01T13:30:00Z,22.2030,-94.0000,5.0,12.0,-9999.0,15.0,'11111222,11111222,11111222' 
NDBC,ioos:station:wmo:42055:1,2019-11-01T14:30:00Z,22.2030,-94.0000,5.0,11.0,-9999.0,14.0,'11111222,11111222,11111222' 
NDBC,ioos:station:wmo:42055:1,2019-11-01T15:40:00Z,22.2030,-94.0000,5.0,10.0,-9999.0,13.0,'11111222,11111222,11111222' 
NDBC,ioos:station:wmo:42055:1,2019-11-01T16:30:00Z,22.2030,-94.0000,5.0,10.0,-9999.0,13.0,'11111222,11111222,11111222' 
NDBC,ioos:station:wmo:42055:1,2019-11-01T17:50:00Z,22.2030,-94.0000,5.0,10.0,-9999.0,12.0,'11111222,11111222,11111222' 
NDBC,ioos:station:wmo:42055:1,2019-11-01T18:30:00Z,22.2030,-94.0000,5.0,10.0,-9999.0,12.0,'11111222,11111222,11111222' 
NDBC,ioos:station:wmo:42055:1,2019-11-01T19:30:00Z,22.2030,-94.0000,5.0,9.0,-9999.0,12.0,'11111222,11111222,11111222' 
NDBC,ioos:station:wmo:42055:1,2019-11-01T20:40:00Z,22.2030,-94.0000,5.0,9.0,-9999.0,12.0,'11111222,11111222,11111222' 
NDBC,ioos:station:wmo:42055:1,2019-11-01T21:30:00Z,22.2030,-94.0000,5.0,9.0,-9999.0,12.0,'11111222,11111222,11111222' 
NDBC,ioos:station:wmo:42055:1,2019-11-01T22:40:00Z,22.2030,-94.0000,5.0,9.0,-9999.0,12.0,'11111222,11111222,11111222' 
NDBC,ioos:station:wmo:42055:1,2019-11-01T23:40:00Z,22.2030,-94.0000,5.0,9.0,-9999.0,11.0,'11111222,11111222,11111222' 
NDBC,ioos:station:wmo:42055:1,2019-11-02T00:50:00Z,22.2030,-94.0000,5.0,10.0,-9999.0,12.0,'11111222,11111222,11111222' 
NDBC,ioos:station:wmo:42055:1,2019-11-02T01:30:00Z,22.2030,-94.0000,5.0,10.0,-9999.0,13.0,'11111222,11111222,11111222' 
NDBC,ioos:station:wmo:42055:1,2019-11-02T02:40:00Z,22.2030,-94.0000,5.0,9.0,-9999.0,12.0,'11111222,11111222,11111222' 
NDBC,ioos:station:wmo:42055:1,2019-11-02T03:50:00Z,22.2030,-94.0000,5.0,9.0,-9999.0,12.0,'11111222,11111222,11111222' 
NDBC,ioos:station:wmo:42055:1,2019-11-02T04:50:00Z,22.2030,-94.0000,5.0,8.0,-9999.0,10.0,'11111222,11111222,11111222' 
NDBC,ioos:station:wmo:42055:1,2019-11-02T05:40:00Z,22.2030,-94.0000,5.0,7.0,-9999.0,10.0,'11111222,11111222,11111222' 
NDBC,ioos:station:wmo:42055:1,2019-11-02T06:30:00Z,22.2030,-94.0000,5.0,8.0,-9999.0,10.0,'11111222,11111222,11111222' 
NDBC,ioos:station:wmo:42055:1,2019-11-02T07:20:00Z,22.2030,-94.0000,5.0,8.0,-9999.0,10.0,'11111222,11111222,11111222' 
NDBC,ioos:station:wmo:42055:1,2019-11-02T08:50:00Z,22.2030,-94.0000,5.0,8.0,-9999.0,10.0,'11111222,11111222,11111222' 
NDBC,ioos:station:wmo:42055:1,2019-11-02T09:30:00Z,22.2030,-94.0000,5.0,9.0,-9999.0,11.0,'11111222,11111222,11111222' 
NDBC,ioos:station:wmo:42055:1,2019-11-02T10:20:00Z,22.2030,-94.0000,5.0,8.0,-9999.0,10.0,'11111222,11111222,11111222' 
NDBC,ioos:station:wmo:42055:1,2019-11-02T11:40:00Z,22.2030,-94.0000,5.0,9.0,-9999.0,11.0,'11111222,11111222,11111222' 
NDBC,ioos:station:wmo:42055:1,2019-11-02T12:30:00Z,22.2030,-94.0000,5.0,10.0,-9999.0,12.0,'11111222,11111222,11111222' 
NDBC,ioos:station:wmo:42055:1,2019-11-02T13:40:00Z,22.2030,-94.0000,5.0,9.0,-9999.0,12.0,'11111222,11111222,11111222' 
NDBC,ioos:station:wmo:42055:1,2019-11-02T14:40:00Z,22.2030,-94.0000,5.0,10.0,-9999.0,12.0,'11111222,11111222,11111222' 
NDBC,ioos:station:wmo:42055:1,2019-11-02T15:40:00Z,22.2030,-94.0000,5.0,10.0,-9999.0,13.0,'11111222,11111222,11111222' 
NDBC,ioos:station:wmo:42055:1,2019-11-02T16:30:00Z,22.2030,-94.0000,5.0,10.0,-9999.0,12.0,'11111222,11111222,11111222' 
NDBC,ioos:station:wmo:42055:1,2019-11-02T17:30:00Z,22.2030,-94.0000,5.0,11.0,-9999.0,14.0,'11111222,11111222,11111222' 
NDBC,ioos:station:wmo:42055:1,2019-11-02T18:30:00Z,22.2030,-94.0000,5.0,12.0,-9999.0,14.0,'11111222,11111222,11111222' 
NDBC,ioos:station:wmo:42055:1,2019-11-02T19:20:00Z,22.2030,-94.0000,5.0,11.0,-9999.0,13.0,'11111222,11111222,11111222' 
NDBC,ioos:station:wmo:42055:1,2019-11-02T20:40:00Z,22.2030,-94.0000,5.0,11.0,-9999.0,14.0,'11111222,11111222,11111222' 
NDBC,ioos:station:wmo:42055:1,2019-11-02T21:30:00Z,22.2030,-94.0000,5.0,10.0,-9999.0,13.0,'11111222,11111222,11111222' 
NDBC,ioos:station:wmo:42055:1,2019-11-02T22:20:00Z,22.2030,-94.0000,5.0,11.0,-9999.0,13.0,'11111222,11111222,11111222' 
NDBC,ioos:station:wmo:42055:1,2019-11-02T22:50:00Z,22.2030,-94.0000,5.0,11.0,-9999.0,14.0,'11111222,11111222,11111222' 
NDBC,ioos:station:wmo:42055:1,2019-11-02T23:50:00Z,22.2030,-94.0000,5.0,11.0,-9999.0,13.0,'11111222,11111222,11111222' 
NDBC,ioos:station:wmo:42055:1,2019-11-03T01:50:00Z,22.2030,-94.0000,5.0,11.0,-9999.0,14.0,'11111222,11111222,11111222' 
NDBC,ioos:station:wmo:42055:1,2019-11-03T02:30:00Z,22.2030,-94.0000,5.0,10.0,-9999.0,13.0,'11111222,11111222,11111222' 
NDBC,ioos:station:wmo:42055:1,2019-11-03T03:30:00Z,22.2030,-94.0000,5.0,11.0,-9999.0,14.0,'11111222,11111222,11111222' 
NDBC,ioos:station:wmo:42055:1,2019-11-03T04:20:00Z,22.2030,-94.0000,5.0,11.0,-9999.0,13.0,'11111222,11111222,11111222' 
NDBC,ioos:station:wmo:42055:1,2019-11-03T05:20:00Z,22.2030,-94.0000,5.0,10.0,-9999.0,12.0,'11111222,11111222,11111222' 
NDBC,ioos:station:wmo:42055:1,2019-11-03T07:20:00Z,22.2030,-94.0000,5.0,9.0,-9999.0,11.0,'11111222,11111222,11111222' 
NDBC,ioos:station:wmo:42055:1,2019-11-03T08:00:00Z,22.2030,-94.0000,5.0,9.0,-9999.0,12.0,'11111222,11111222,11111222' 
NDBC,ioos:station:wmo:42055:1,2019-11-03T09:40:00Z,22.2030,-94.0000,5.0,10.0,-9999.0,12.0,'11111222,11111222,11111222' 
NDBC,ioos:station:wmo:42055:1,2019-11-03T12:40:00Z,22.2030,-94.0000,5.0,9.0,-9999.0,11.0,'11111222,11111222,11111222' 
NDBC,ioos:station:wmo:42055:1,2019-11-03T13:50:00Z,22.2030,-94.0000,5.0,9.0,-9999.0,11.0,'11111222,11111222,11111222' 
NDBC,ioos:station:wmo:42055:1,2019-11-03T14:20:00Z,22.2030,-94.0000,5.0,8.0,-9999.0,10.0,'11111222,11111222,11111222' 
NDBC,ioos:station:wmo:42055:1,2019-11-03T15:20:00Z,22.2030,-94.0000,5.0,8.0,-9999.0,10.0,'11111222,11111222,11111222' 
NDBC,ioos:station:wmo:42055:1,2019-11-03T16:30:00Z,22.2030,-94.0000,5.0,7.0,-9999.0,10.0,'11111222,11111222,11111222' 
NDBC,ioos:station:wmo:42055:1,2019-11-03T16:40:00Z,22.2030,-94.0000,5.0,7.0,-9999.0,9.0,'11111222,11111222,11111222' 
NDBC,ioos:station:wmo:42055:1,2019-11-03T17:50:00Z,22.2030,-94.0000,5.0,7.0,-9999.0,9.0,'11111222,11111222,11111222' 
NDBC,ioos:station:wmo:42055:1,2019-11-03T19:00:00Z,22.2030,-94.0000,5.0,7.0,-9999.0,10.0,'11111222,11111222,11111222' 
NDBC,ioos:station:wmo:42055:1,2019-11-03T20:20:00Z,22.2030,-94.0000,5.0,7.0,-9999.0,9.0,'11111222,11111222,11111222' 
NDBC,ioos:station:wmo:42055:1,2019-11-03T21:30:00Z,22.2030,-94.0000,5.0,7.0,-9999.0,9.0,'11111222,11111222,11111222' 
NDBC,ioos:station:wmo:42055:1,2019-11-03T22:30:00Z,22.2030,-94.0000,5.0,8.0,-9999.0,10.0,'11111222,11111222,11111222' 
NDBC,ioos:station:wmo:42055:1,2019-11-03T23:10:00Z,22.2030,-94.0000,5.0,8.0,-9999.0,10.0,'11111222,11111222,11111222' 
NDBC,ioos:station:wmo:42055:1,2019-11-04T00:40:00Z,22.2030,-94.0000,5.0,8.0,-9999.0,10.0,'11111222,11111222,11111222' 
NDBC,ioos:station:wmo:42055:1,2019-11-04T01:20:00Z,22.2030,-94.0000,5.0,8.0,-9999.0,10.0,'11111222,11111222,11111222' 
NDBC,ioos:station:wmo:42055:1,2019-11-04T02:30:00Z,22.2030,-94.0000,5.0,7.0,-9999.0,9.0,'11111222,11111222,11111222' 
NDBC,ioos:station:wmo:42055:1,2019-11-04T03:20:00Z,22.2030,-94.0000,5.0,6.0,-9999.0,8.0,'11111222,11111222,11111222' 
NDBC,ioos:station:wmo:42055:1,2019-11-04T04:30:00Z,22.2030,-94.0000,5.0,6.0,-9999.0,8.0,'11111222,11111222,11111222' 
NDBC,ioos:station:wmo:42055:1,2019-11-04T05:10:00Z,22.2030,-94.0000,5.0,6.0,-9999.0,7.0,'11111222,11111222,11111222' 
NDBC,ioos:station:wmo:42055:1,2019-11-04T15:00:00Z,22.2030,-94.0000,5.0,5.0,-9999.0,7.0,'11111222,11111222,11111222' 
NDBC,ioos:station:wmo:42055:1,2019-11-04T16:30:00Z,22.2030,-94.0000,5.0,6.0,-9999.0,8.0,'11111222,11111222,11111222' 
NDBC,ioos:station:wmo:42055:1,2019-11-04T17:40:00Z,22.2030,-94.0000,5.0,4.0,-9999.0,5.0,'11111222,11111222,11111222' 
 
DISCLAIMER: The Gulf of Mexico Coastal and Ocean Observing (GCOOS) Data Portal aggregates data from the regional data providers for the convenience of all data users. Data published on this website should not be used for navigation or certain other uses as we cannot guarantee data accuracy or availability. The data and delivery services are provided 'as is' without warranty of any kind. Data Source: Gulf of Mexico Coastal Ocean Observing System Data Portal (http://data.gcoos.org/) 
